Location: Mesa Vista Observatory
(35.5777°N, 105.6987°W)
Time: 10:36:25
(UTC-06:00)

Hubble Space Telescope - Pass Details

Date: 18 June 2019
Orbit: 536 x 540 km, 28.5° (Epoch: 17 July)

Event Time Altitude Azimuth Distance (km) Brightness Sun altitude
Exits shadow 04:07:29 29° 187° (S) 992 1.7 -16.8°
Maximum altitude 04:07:33 29° 185° (S) 992 1.7 -16.8°
Drops below altitude 10° 04:11:07 10° 124° (SE) 1,771 3.5 -16.2°
Sets 04:13:34 0° 113° (ESE) 2,661 4.6 -15.9°
